Terug naar catalogus

SL-3 DEB

ActiefPO
NORAD 8110·DEBRIS·🇷🇺 Russia

Gelanceerd Jul 11, 1975 vanaf Plesetsk Cosmodrome

Loading…

Volgende Passages (komende 24 uur)

TLE

VersSource: Space-Track

Epoch: Sep 13, 2026, 20:50 UTC

1 08110U 75064D   26256.86854095  .00000107  00000-0  51414-4 0  9995
2 08110  81.3478  37.1688 0034248 116.2844 244.1854 14.11496774634053

Volg SL-3 DEB in realtime met AllMySat

Download on the App Store